RYR4BJ LIME-LOWW

Flight info

Callsign RYR4BJ
Flight time 1h 24m
Altitude 34000
Route LEGLO L615 OSKOR M985 NESTI DCT ARALD DCT ABTAN ABTAN2W
Aircraft B738/M-SDE3FGILRWY/SB1

Departure

Time 2026-05-06 19:25
Airport Il Caravaggio International Airport (LIME)

Arrival

Time 2026-05-06 20:49
Airport Vienna International Airport (LOWW)
Time Latitude Longitude Altitude Speed Heading
2026-05-06 18:34 45.66813 9.69181 786 ft 0 kts 195°
2026-05-06 19:15 45.66826 9.69186 786 ft 4 kts 195°
2026-05-06 19:15 45.66852 9.69195 786 ft 4 kts 193°
2026-05-06 19:15 45.66874 9.69202 786 ft 2 kts 181°
2026-05-06 19:16 45.66886 9.69199 786 ft 2 kts 136°
2026-05-06 19:16 45.66892 9.69186 786 ft 2 kts 109°
2026-05-06 19:16 45.66894 9.69180 786 ft 0 kts 108°
2026-05-06 19:18 45.66889 9.69207 786 ft 5 kts 102°
2026-05-06 19:18 45.66873 9.69306 786 ft 16 kts 104°
2026-05-06 19:18 45.66834 9.69512 786 ft 26 kts 105°
2026-05-06 19:19 45.66791 9.69743 786 ft 25 kts 105°
2026-05-06 19:19 45.66740 9.70014 786 ft 31 kts 105°
2026-05-06 19:19 45.66693 9.70274 786 ft 27 kts 104°
2026-05-06 19:19 45.66658 9.70463 786 ft 19 kts 106°
2026-05-06 19:20 45.66618 9.70674 786 ft 25 kts 104°
2026-05-06 19:20 45.66568 9.70939 786 ft 24 kts 106°
2026-05-06 19:20 45.66524 9.71146 786 ft 25 kts 112°
2026-05-06 19:20 45.66485 9.71314 786 ft 20 kts 106°
2026-05-06 19:21 45.66443 9.71534 786 ft 23 kts 104°
2026-05-06 19:21 45.66442 9.71652 786 ft 11 kts 73°
2026-05-06 19:21 45.66469 9.71789 786 ft 18 kts 74°
2026-05-06 19:21 45.66450 9.71982 786 ft 23 kts 105°
2026-05-06 19:22 45.66407 9.72229 786 ft 28 kts 104°
2026-05-06 19:22 45.66382 9.72361 786 ft 2 kts 105°
2026-05-06 19:22 45.66378 9.72393 786 ft 1 kts 96°
2026-05-06 19:22 45.66380 9.72468 786 ft 16 kts 83°
2026-05-06 19:23 45.66416 9.72578 786 ft 4 kts
2026-05-06 19:23 45.66442 9.72554 786 ft 5 kts 301°
2026-05-06 19:23 45.66448 9.72504 786 ft 0 kts 283°
2026-05-06 19:23 45.66448 9.72503 786 ft 0 kts 283°
2026-05-06 19:24 45.66455 9.72461 786 ft 15 kts 284°
2026-05-06 19:24 45.66520 9.72102 786 ft 33 kts 285°
2026-05-06 19:24 45.66539 9.72000 786 ft 11 kts 285°
2026-05-06 19:25 45.66605 9.71651 786 ft 80 kts 285°
2026-05-06 19:25 45.66832 9.70460 788 ft 166 kts 288°
2026-05-06 19:25 45.67216 9.68677 1372 ft 197 kts 288°
2026-05-06 19:25 45.67271 9.66653 2356 ft 210 kts 248°
2026-05-06 19:26 45.66374 9.65161 3682 ft 195 kts 215°
2026-05-06 19:26 45.65332 9.63919 4668 ft 198 kts 220°
2026-05-06 19:26 45.64264 9.62508 5086 ft 219 kts 222°
2026-05-06 19:26 45.63159 9.60975 5730 ft 221 kts 223°
2026-05-06 19:27 45.62065 9.59418 5959 ft 222 kts 223°
2026-05-06 19:27 45.60968 9.57871 6181 ft 222 kts 223°
2026-05-06 19:27 45.59862 9.56306 6370 ft 225 kts 224°
2026-05-06 19:27 45.58647 9.54908 7079 ft 224 kts 203°
2026-05-06 19:28 45.57137 9.54566 7895 ft 222 kts 173°
2026-05-06 19:28 45.55699 9.55375 8635 ft 228 kts 145°
2026-05-06 19:28 45.54715 9.57145 9334 ft 239 kts 115°
2026-05-06 19:28 45.54492 9.59545 10020 ft 249 kts 82°
2026-05-06 19:29 45.55173 9.61804 10633 ft 257 kts 53°
2026-05-06 19:29 45.56374 9.63713 11287 ft 261 kts 47°
2026-05-06 19:29 45.57653 9.65608 11814 ft 262 kts 47°
2026-05-06 19:29 45.58906 9.67477 12502 ft 266 kts 47°
2026-05-06 19:30 45.60184 9.69422 13183 ft 271 kts 48°
2026-05-06 19:30 45.61474 9.71412 13879 ft 275 kts 48°
2026-05-06 19:30 45.62791 9.73456 14544 ft 278 kts 48°
2026-05-06 19:30 45.64102 9.75517 15213 ft 281 kts 52°
2026-05-06 19:31 45.64949 9.78001 15831 ft 279 kts 84°
2026-05-06 19:31 45.65072 9.80744 16537 ft 277 kts 94°
2026-05-06 19:31 45.65033 9.86361 17817 ft 288 kts 96°
2026-05-06 19:32 45.65007 9.89235 18475 ft 290 kts 95°
2026-05-06 19:32 45.64988 9.92096 19036 ft 295 kts 96°
2026-05-06 19:32 45.64972 9.95089 19587 ft 300 kts 96°
2026-05-06 19:32 45.64960 9.98062 20084 ft 306 kts 96°
2026-05-06 19:33 45.64950 10.01092 20631 ft 309 kts 96°
2026-05-06 19:33 45.64941 10.04190 21197 ft 313 kts 96°
2026-05-06 19:33 45.64930 10.07321 21694 ft 318 kts 96°
2026-05-06 19:33 45.64918 10.10507 22232 ft 323 kts 97°
2026-05-06 19:34 45.64905 10.13726 22802 ft 327 kts 97°
2026-05-06 19:34 45.64895 10.17003 23360 ft 331 kts 97°
2026-05-06 19:34 45.64892 10.20303 23810 ft 336 kts 95°
2026-05-06 19:34 45.65360 10.23712 23870 ft 368 kts 67°
2026-05-06 19:35 45.66915 10.26707 24020 ft 387 kts 38°
2026-05-06 19:35 45.69272 10.28627 24159 ft 396 kts 14°
2026-05-06 19:35 45.71949 10.29824 24331 ft 413 kts 16°
2026-05-06 19:35 45.74549 10.31806 24409 ft 436 kts 37°
2026-05-06 19:36 45.76715 10.34931 24529 ft 451 kts 53°
2026-05-06 19:36 45.78575 10.38617 24814 ft 459 kts 57°
2026-05-06 19:36 45.80348 10.42453 25252 ft 464 kts 60°
2026-05-06 19:36 45.81844 10.46548 25698 ft 465 kts 68°
2026-05-06 19:37 45.83198 10.50765 26154 ft 467 kts 69°
2026-05-06 19:37 45.84087 10.53588 26435 ft 470 kts 69°
2026-05-06 19:37 45.85436 10.57884 26849 ft 474 kts 69°
2026-05-06 19:37 45.86801 10.62202 27315 ft 477 kts 69°
2026-05-06 19:38 45.88190 10.66554 27762 ft 480 kts 69°
2026-05-06 19:38 45.89591 10.70912 28147 ft 483 kts 69°
2026-05-06 19:38 45.91007 10.75298 28572 ft 486 kts 69°
2026-05-06 19:38 45.92437 10.79722 28950 ft 489 kts 69°
2026-05-06 19:39 45.93874 10.84167 29332 ft 493 kts 69°
2026-05-06 19:39 45.95321 10.88653 29691 ft 497 kts 69°
2026-05-06 19:39 45.96775 10.93169 30057 ft 500 kts 69°
2026-05-06 19:39 45.98238 10.97723 30362 ft 503 kts 69°
2026-05-06 19:40 45.99706 11.02297 30736 ft 504 kts 69°
2026-05-06 19:40 46.01173 11.06880 31054 ft 506 kts 69°
2026-05-06 19:40 46.02646 11.11490 31349 ft 508 kts 69°
2026-05-06 19:40 46.04122 11.16118 31667 ft 509 kts 69°
2026-05-06 19:41 46.05596 11.20749 32002 ft 510 kts 69°
2026-05-06 19:41 46.07072 11.25394 32311 ft 511 kts 69°
2026-05-06 19:41 46.08550 11.30057 32601 ft 513 kts 69°
2026-05-06 19:41 46.10010 11.34667 32954 ft 512 kts 69°
2026-05-06 19:42 46.11482 11.39325 33415 ft 509 kts 69°
2026-05-06 19:42 46.12947 11.43964 33852 ft 507 kts 69°
2026-05-06 19:42 46.15886 11.53315 33923 ft 515 kts 69°
2026-05-06 19:43 46.18817 11.62662 33905 ft 506 kts 69°
2026-05-06 19:43 46.21704 11.71904 33925 ft 506 kts 69°
2026-05-06 19:44 46.24598 11.81214 33913 ft 509 kts 70°
2026-05-06 19:44 46.27499 11.90577 33908 ft 512 kts 70°
2026-05-06 19:45 46.30397 11.99961 33923 ft 511 kts 70°
2026-05-06 19:45 46.33291 12.09366 33899 ft 512 kts 70°
2026-05-06 19:46 46.36172 12.18765 33920 ft 510 kts 70°
2026-05-06 19:46 46.39038 12.28147 33916 ft 509 kts 70°
2026-05-06 19:47 46.41888 12.37513 33923 ft 506 kts 70°
2026-05-06 19:47 46.44715 12.46840 33934 ft 504 kts 70°
2026-05-06 19:48 46.47519 12.56126 33952 ft 502 kts 70°
2026-05-06 19:48 46.50307 12.65398 33925 ft 501 kts 70°
2026-05-06 19:49 46.53088 12.74677 33948 ft 501 kts 70°
2026-05-06 19:49 46.55850 12.83931 33937 ft 504 kts 70°
2026-05-06 19:50 46.58641 12.93313 33925 ft 506 kts 70°
2026-05-06 19:50 46.61443 13.02765 33928 ft 507 kts 70°
2026-05-06 19:51 46.64225 13.12187 33930 ft 507 kts 70°
2026-05-06 19:51 46.67001 13.21622 33938 ft 508 kts 70°
2026-05-06 19:52 46.69894 13.30945 33937 ft 509 kts 66°
2026-05-06 19:52 46.72772 13.40338 33935 ft 506 kts 72°
2026-05-06 19:53 46.75180 13.49973 33919 ft 505 kts 74°
2026-05-06 19:53 46.77544 13.59577 33925 ft 500 kts 73°
2026-05-06 19:54 46.79944 13.69085 33906 ft 497 kts 72°
2026-05-06 19:54 46.81140 13.73769 33660 ft 488 kts 72°
2026-05-06 19:54 46.82326 13.78408 33009 ft 488 kts 72°
2026-05-06 19:55 46.83515 13.83073 32195 ft 492 kts 72°
2026-05-06 19:55 46.84710 13.87776 31373 ft 497 kts 72°
2026-05-06 19:55 46.85914 13.92527 30571 ft 500 kts 72°
2026-05-06 19:55 46.87122 13.97303 29764 ft 502 kts 72°
2026-05-06 19:56 46.88333 14.02100 28871 ft 503 kts 72°
2026-05-06 19:56 46.89535 14.06869 28326 ft 496 kts 72°
2026-05-06 19:56 46.90719 14.11571 27642 ft 491 kts 72°
2026-05-06 19:56 46.91894 14.16253 26800 ft 490 kts 72°
2026-05-06 19:57 46.93067 14.20938 25885 ft 492 kts 72°
2026-05-06 19:57 46.94239 14.25633 25057 ft 491 kts 72°
2026-05-06 19:57 46.95401 14.30292 24509 ft 483 kts 72°
2026-05-06 19:57 46.96540 14.34867 23971 ft 474 kts 72°
2026-05-06 19:58 46.97656 14.39358 23637 ft 462 kts 72°
2026-05-06 19:58 46.98739 14.43724 23388 ft 449 kts 72°
2026-05-06 19:58 46.99788 14.47961 23101 ft 438 kts 72°
2026-05-06 19:58 47.00811 14.52106 22802 ft 426 kts 72°
2026-05-06 19:59 47.01804 14.56137 22526 ft 416 kts 72°
2026-05-06 19:59 47.02774 14.60085 22242 ft 407 kts 72°
2026-05-06 19:59 47.03711 14.63899 21963 ft 399 kts 72°
2026-05-06 19:59 47.04640 14.67691 21702 ft 392 kts 72°
2026-05-06 20:00 47.05565 14.71478 21425 ft 388 kts 72°
2026-05-06 20:00 47.06462 14.75154 21193 ft 388 kts 72°
2026-05-06 20:00 47.07370 14.78880 20937 ft 387 kts 72°
2026-05-06 20:00 47.08287 14.82650 20676 ft 387 kts 72°
2026-05-06 20:01 47.09178 14.86318 20422 ft 387 kts 72°
2026-05-06 20:01 47.10080 14.90036 20184 ft 387 kts 72°
2026-05-06 20:01 47.10981 14.93756 19937 ft 387 kts 72°
2026-05-06 20:01 47.11880 14.97471 19701 ft 386 kts 72°
2026-05-06 20:02 47.12775 15.01177 19436 ft 385 kts 72°
2026-05-06 20:02 47.13663 15.04860 19188 ft 379 kts 72°
2026-05-06 20:02 47.14532 15.08471 18941 ft 372 kts 72°
2026-05-06 20:02 47.15386 15.12022 18695 ft 366 kts 72°
2026-05-06 20:03 47.16225 15.15518 18460 ft 360 kts 72°
2026-05-06 20:03 47.17052 15.18969 18218 ft 357 kts 72°
2026-05-06 20:03 47.17872 15.22402 17968 ft 354 kts 72°
2026-05-06 20:03 47.18688 15.25821 17898 ft 357 kts 72°
2026-05-06 20:04 47.19509 15.29268 17871 ft 356 kts 72°
2026-05-06 20:04 47.20323 15.32687 17848 ft 353 kts 72°
2026-05-06 20:04 47.21131 15.36091 17869 ft 353 kts 72°
2026-05-06 20:04 47.21942 15.39509 17857 ft 355 kts 72°
2026-05-06 20:05 47.22754 15.42938 17871 ft 356 kts 72°
2026-05-06 20:05 47.23568 15.46379 17854 ft 356 kts 72°
2026-05-06 20:05 47.24381 15.49824 17855 ft 356 kts 73°
2026-05-06 20:05 47.25192 15.53265 17857 ft 356 kts 73°
2026-05-06 20:06 47.26004 15.56710 17861 ft 356 kts 72°
2026-05-06 20:06 47.26815 15.60161 17863 ft 356 kts 73°
2026-05-06 20:06 47.27624 15.63610 17851 ft 356 kts 73°
2026-05-06 20:06 47.28431 15.67053 17863 ft 356 kts 73°
2026-05-06 20:07 47.29237 15.70500 17865 ft 356 kts 73°
2026-05-06 20:07 47.30042 15.73943 17852 ft 351 kts 73°
2026-05-06 20:07 47.30814 15.77250 17833 ft 340 kts 73°
2026-05-06 20:07 47.31567 15.80481 17828 ft 327 kts 73°
2026-05-06 20:08 47.32300 15.83631 17831 ft 316 kts 73°
2026-05-06 20:08 47.32993 15.86615 17837 ft 309 kts 73°
2026-05-06 20:08 47.33697 15.89658 17854 ft 311 kts 73°
2026-05-06 20:08 47.34390 15.92657 17863 ft 315 kts 73°
2026-05-06 20:09 47.35101 15.95732 17864 ft 318 kts 73°
2026-05-06 20:09 47.35822 15.98853 17832 ft 316 kts 73°
2026-05-06 20:09 47.36651 16.01789 17817 ft 316 kts 57°
2026-05-06 20:09 47.38242 16.04103 17876 ft 334 kts 31°
2026-05-06 20:10 47.40424 16.05580 17430 ft 346 kts 18°
2026-05-06 20:10 47.42705 16.06709 17133 ft 346 kts 15°
2026-05-06 20:10 47.44994 16.07776 16798 ft 344 kts 15°
2026-05-06 20:10 47.47268 16.08838 16494 ft 341 kts 16°
2026-05-06 20:11 47.49486 16.09892 16216 ft 338 kts 16°
2026-05-06 20:11 47.51710 16.10968 15926 ft 336 kts 17°
2026-05-06 20:11 47.53951 16.12065 15761 ft 346 kts 17°
2026-05-06 20:11 47.56265 16.13207 15367 ft 350 kts 17°
2026-05-06 20:12 47.58560 16.14346 15071 ft 347 kts 17°
2026-05-06 20:12 47.60836 16.15479 14856 ft 340 kts 17°
2026-05-06 20:12 47.63051 16.16586 14804 ft 333 kts 17°
2026-05-06 20:12 47.65221 16.17672 14788 ft 324 kts 17°
2026-05-06 20:13 47.67311 16.18717 14788 ft 311 kts 17°
2026-05-06 20:13 47.69318 16.19721 14758 ft 298 kts 17°
2026-05-06 20:13 47.71239 16.20683 14770 ft 285 kts 17°
2026-05-06 20:13 47.73080 16.21605 14784 ft 275 kts 17°
2026-05-06 20:14 47.74867 16.22499 14797 ft 276 kts 16°
2026-05-06 20:14 47.76716 16.23428 14804 ft 286 kts 18°
2026-05-06 20:14 47.78437 16.24985 14774 ft 293 kts 50°
2026-05-06 20:14 47.79424 16.27582 14794 ft 290 kts 80°
2026-05-06 20:15 47.79476 16.30516 14788 ft 280 kts 110°
2026-05-06 20:15 47.78664 16.33050 14781 ft 268 kts 136°
2026-05-06 20:15 47.77251 16.34722 14793 ft 257 kts 161°
2026-05-06 20:15 47.75566 16.35453 14780 ft 250 kts 179°
2026-05-06 20:16 47.73859 16.35261 14778 ft 245 kts 199°
2026-05-06 20:16 47.72332 16.34235 14803 ft 242 kts 214°
2026-05-06 20:16 47.70989 16.32697 14776 ft 241 kts 219°
2026-05-06 20:16 47.69721 16.31110 14691 ft 236 kts 220°
2026-05-06 20:17 47.68458 16.29543 14345 ft 238 kts 219°
2026-05-06 20:17 47.67188 16.27986 14131 ft 235 kts 219°
2026-05-06 20:17 47.65919 16.26442 13847 ft 237 kts 219°
2026-05-06 20:17 47.64708 16.24793 13557 ft 237 kts 233°
2026-05-06 20:18 47.64039 16.22574 13337 ft 238 kts 253°
2026-05-06 20:18 47.63960 16.20109 13090 ft 244 kts 274°
2026-05-06 20:18 47.64541 16.17724 12952 ft 251 kts 296°
2026-05-06 20:18 47.65755 16.15823 12877 ft 260 kts 321°
2026-05-06 20:19 47.67466 16.14818 12840 ft 274 kts 348°
2026-05-06 20:19 47.69369 16.15066 12792 ft 280 kts 17°
2026-05-06 20:19 47.71059 16.16497 12797 ft 282 kts 37°
2026-05-06 20:19 47.72583 16.18356 12781 ft 286 kts 39°
2026-05-06 20:20 47.74122 16.20262 12787 ft 289 kts 39°
2026-05-06 20:20 47.75673 16.22167 12782 ft 291 kts 39°
2026-05-06 20:20 47.77196 16.24111 12770 ft 293 kts 49°
2026-05-06 20:20 47.78377 16.26601 12798 ft 291 kts 60°
2026-05-06 20:21 47.79451 16.29163 12786 ft 292 kts 60°
2026-05-06 20:21 47.80514 16.31693 12778 ft 293 kts 60°
2026-05-06 20:21 47.81591 16.34261 12778 ft 291 kts 60°
2026-05-06 20:21 47.82653 16.36798 12767 ft 287 kts 60°
2026-05-06 20:22 47.83706 16.39309 12770 ft 285 kts 60°
2026-05-06 20:22 47.84757 16.41815 12787 ft 286 kts 60°
2026-05-06 20:22 47.85811 16.44334 12792 ft 287 kts 60°
2026-05-06 20:22 47.86865 16.46857 12787 ft 288 kts 60°
2026-05-06 20:23 47.87924 16.49392 12764 ft 287 kts 60°
2026-05-06 20:23 47.88981 16.51921 12540 ft 289 kts 60°
2026-05-06 20:23 47.90056 16.54504 12023 ft 298 kts 60°
2026-05-06 20:23 47.91149 16.57158 11591 ft 302 kts 60°
2026-05-06 20:24 47.92246 16.59836 11312 ft 302 kts 60°
2026-05-06 20:24 47.93334 16.62499 11047 ft 300 kts 60°
2026-05-06 20:24 47.94356 16.65198 10770 ft 298 kts 67°
2026-05-06 20:24 47.95179 16.68025 10510 ft 296 kts 69°
2026-05-06 20:25 47.95975 16.70849 10229 ft 295 kts 68°
2026-05-06 20:25 47.96820 16.73628 10050 ft 293 kts 66°
2026-05-06 20:25 47.97686 16.76340 10015 ft 286 kts 65°
2026-05-06 20:25 47.98614 16.78926 9984 ft 281 kts 52°
2026-05-06 20:26 47.99530 16.80234 9999 ft 276 kts 31°
2026-05-06 20:26 48.01293 16.81220 10010 ft 272 kts
2026-05-06 20:26 48.03162 16.81041 10015 ft 269 kts 339°
2026-05-06 20:26 48.04859 16.79951 10040 ft 264 kts 327°
2026-05-06 20:27 48.06478 16.78674 10026 ft 262 kts 326°
2026-05-06 20:27 48.08089 16.77406 10012 ft 261 kts 327°
2026-05-06 20:27 48.09698 16.76150 9894 ft 261 kts 327°
2026-05-06 20:27 48.11303 16.74905 9640 ft 260 kts 327°
2026-05-06 20:28 48.12908 16.73662 9324 ft 260 kts 327°
2026-05-06 20:28 48.14516 16.72419 9037 ft 260 kts 327°
2026-05-06 20:28 48.16124 16.71177 8765 ft 260 kts 327°
2026-05-06 20:28 48.17728 16.69938 8483 ft 260 kts 327°
2026-05-06 20:29 48.19360 16.68673 8012 ft 268 kts 327°
2026-05-06 20:29 48.21021 16.67387 7679 ft 269 kts 327°
2026-05-06 20:29 48.22697 16.66155 7443 ft 269 kts 334°
2026-05-06 20:29 48.24471 16.65336 7352 ft 263 kts 340°
2026-05-06 20:30 48.26217 16.64663 7277 ft 254 kts 340°
2026-05-06 20:30 48.29520 16.63363 7077 ft 238 kts 339°
2026-05-06 20:30 48.31107 16.62708 6848 ft 237 kts 338°
2026-05-06 20:31 48.32696 16.62043 6599 ft 237 kts 339°
2026-05-06 20:31 48.34293 16.61440 6375 ft 239 kts 349°
2026-05-06 20:31 48.35957 16.61723 6131 ft 244 kts 13°
2026-05-06 20:31 48.37592 16.62460 6051 ft 245 kts 15°
2026-05-06 20:32 48.39220 16.63229 6003 ft 245 kts 15°
2026-05-06 20:32 48.40839 16.64000 5993 ft 243 kts 15°
2026-05-06 20:32 48.42447 16.64774 5990 ft 243 kts 15°
2026-05-06 20:32 48.44068 16.65552 5995 ft 246 kts 15°
2026-05-06 20:33 48.45701 16.66332 5991 ft 246 kts 15°
2026-05-06 20:33 48.47334 16.67107 5986 ft 246 kts 12°
2026-05-06 20:33 48.49002 16.67266 5990 ft 237 kts 348°
2026-05-06 20:33 48.50632 16.66914 5980 ft 236 kts 346°
2026-05-06 20:34 48.52254 16.66517 5987 ft 235 kts 346°
2026-05-06 20:34 48.53840 16.66115 5978 ft 227 kts 346°
2026-05-06 20:34 48.55350 16.65703 5969 ft 215 kts 345°
2026-05-06 20:34 48.56788 16.65316 5959 ft 207 kts 345°
2026-05-06 20:35 48.58208 16.64946 5975 ft 206 kts 346°
2026-05-06 20:35 48.59624 16.64565 5977 ft 207 kts 345°
2026-05-06 20:35 48.61039 16.64175 5984 ft 207 kts 345°
2026-05-06 20:35 48.62454 16.63780 5975 ft 207 kts 345°
2026-05-06 20:36 48.63817 16.63251 5969 ft 202 kts 325°
2026-05-06 20:36 48.64739 16.61798 5985 ft 185 kts 285°
2026-05-06 20:36 48.64930 16.59897 6003 ft 185 kts 267°
2026-05-06 20:36 48.64761 16.58009 5943 ft 179 kts 241°
2026-05-06 20:37 48.63936 16.56609 5586 ft 184 kts 217°
2026-05-06 20:37 48.62893 16.55509 5378 ft 181 kts 216°
2026-05-06 20:37 48.61853 16.54469 5168 ft 177 kts 215°
2026-05-06 20:37 48.60824 16.53449 5000 ft 174 kts 215°
2026-05-06 20:38 48.59801 16.52439 4997 ft 179 kts 215°
2026-05-06 20:38 48.58727 16.51487 4985 ft 185 kts 206°
2026-05-06 20:38 48.57531 16.50748 4990 ft 185 kts 205°
2026-05-06 20:38 48.56348 16.50025 4974 ft 182 kts 205°
2026-05-06 20:39 48.55186 16.49321 4965 ft 179 kts 205°
2026-05-06 20:39 48.54007 16.48627 4977 ft 184 kts 205°
2026-05-06 20:39 48.52806 16.47922 4983 ft 188 kts 204°
2026-05-06 20:39 48.51547 16.47364 4981 ft 188 kts 199°
2026-05-06 20:40 48.50281 16.46863 4978 ft 188 kts 199°
2026-05-06 20:40 48.49013 16.46345 4979 ft 189 kts 199°
2026-05-06 20:40 48.47749 16.45817 4988 ft 188 kts 200°
2026-05-06 20:40 48.46485 16.45281 4982 ft 189 kts 200°
2026-05-06 20:41 48.45224 16.44744 4986 ft 188 kts 200°
2026-05-06 20:41 48.43940 16.44344 4969 ft 192 kts 181°
2026-05-06 20:41 48.42637 16.44826 4998 ft 191 kts 169°
2026-05-06 20:41 48.41395 16.45349 4973 ft 179 kts 170°
2026-05-06 20:42 48.40208 16.45852 4998 ft 176 kts 170°
2026-05-06 20:42 48.39024 16.46352 5016 ft 177 kts 169°
2026-05-06 20:42 48.37834 16.46857 5002 ft 178 kts 169°
2026-05-06 20:42 48.36643 16.47362 5005 ft 179 kts 169°
2026-05-06 20:43 48.35442 16.47871 4999 ft 180 kts 169°
2026-05-06 20:43 48.34246 16.48379 5008 ft 177 kts 169°
2026-05-06 20:43 48.33050 16.48885 4835 ft 179 kts 170°
2026-05-06 20:43 48.31864 16.49389 4599 ft 175 kts 171°
2026-05-06 20:44 48.30709 16.49879 4364 ft 169 kts 171°
2026-05-06 20:44 48.29587 16.50354 4155 ft 167 kts 171°
2026-05-06 20:44 48.28467 16.50828 3940 ft 167 kts 171°
2026-05-06 20:44 48.27364 16.51296 3723 ft 162 kts 172°
2026-05-06 20:45 48.26296 16.51750 3497 ft 156 kts 173°
2026-05-06 20:45 48.25270 16.52186 3290 ft 150 kts 173°
2026-05-06 20:45 48.24294 16.52600 3103 ft 142 kts 173°
2026-05-06 20:45 48.23366 16.52992 2931 ft 140 kts 174°
2026-05-06 20:46 48.22445 16.53380 2754 ft 139 kts 174°
2026-05-06 20:46 48.21538 16.53766 2570 ft 134 kts 173°
2026-05-06 20:46 48.20643 16.54145 2395 ft 131 kts 173°
2026-05-06 20:46 48.19827 16.54493 2244 ft 115 kts 174°
2026-05-06 20:47 48.19095 16.54803 2086 ft 104 kts 174°
2026-05-06 20:47 48.18398 16.55096 1947 ft 107 kts 173°
2026-05-06 20:47 48.17653 16.55409 1806 ft 114 kts 172°
2026-05-06 20:47 48.16892 16.55732 1651 ft 113 kts 171°
2026-05-06 20:48 48.16133 16.56054 1506 ft 115 kts 170°
2026-05-06 20:48 48.15351 16.56384 1331 ft 116 kts 166°
2026-05-06 20:48 48.14581 16.56713 1183 ft 114 kts 167°
2026-05-06 20:48 48.13828 16.57032 1034 ft 113 kts 166°
2026-05-06 20:49 48.13028 16.57372 881 ft 123 kts 165°
2026-05-06 20:49 48.12213 16.57716 694 ft 120 kts 166°
2026-05-06 20:49 48.11439 16.58050 616 ft 105 kts 167°
2026-05-06 20:49 48.10925 16.58260 622 ft 41 kts 165°
2026-05-06 20:50 48.10763 16.58289 621 ft 22 kts 186°
2026-05-06 20:50 48.10613 16.58251 609 ft 20 kts 194°
2026-05-06 20:50 48.10589 16.58241 609 ft 0 kts 197°
2026-05-06 20:50 48.10584 16.58239 609 ft 2 kts 196°
2026-05-06 20:51 48.10568 16.58225 609 ft 4 kts 220°
2026-05-06 20:51 48.10547 16.58198 613 ft 0 kts 228°
2026-05-06 20:51 48.10541 16.58180 614 ft 3 kts 253°
2026-05-06 20:51 48.10548 16.58148 609 ft 3 kts 311°
2026-05-06 20:52 48.10571 16.58133 610 ft 4 kts 338°
2026-05-06 20:52 48.10599 16.58122 621 ft 5 kts 343°
2026-05-06 20:52 48.10637 16.58105 610 ft 7 kts 343°
2026-05-06 20:52 48.10696 16.58079 615 ft 11 kts 344°
2026-05-06 20:53 48.10786 16.58040 613 ft 16 kts 344°
2026-05-06 20:53 48.10905 16.57984 616 ft 20 kts 334°
2026-05-06 20:53 48.10991 16.57876 610 ft 13 kts 319°
2026-05-06 20:53 48.11051 16.57754 611 ft 16 kts 302°
2026-05-06 20:54 48.11106 16.57592 610 ft 19 kts 296°
2026-05-06 20:54 48.11153 16.57445 615 ft 14 kts 296°
2026-05-06 20:54 48.11203 16.57292 614 ft 18 kts 295°
2026-05-06 20:54 48.11262 16.57104 619 ft 22 kts 295°
2026-05-06 20:55 48.11334 16.56886 614 ft 25 kts 297°
2026-05-06 20:55 48.11413 16.56645 611 ft 26 kts 296°
2026-05-06 20:55 48.11486 16.56419 618 ft 25 kts 295°
2026-05-06 20:55 48.11562 16.56187 615 ft 18 kts 296°